FGRST (GLAST)

Last updated on Thu Oct 30 2025 00:02:41 GMT+0000 (Coordinated Universal Time)

1 33053U 08029A 25302.49370652 .00005134 00000+0 20331-3 0 9995 2 33053 25.5837 4.3557 0009097 126.2738 233.8641 15.22151250960628
UTC large
Height (km)
Speed (km/s)
/
Latitude / Longitude
Inclination (degrees)
Orbital Period (minutes)
Azimuth
Elevation
Range (km)
Doppler Factor

Next 0 passes for location: London (51.5072 / 0.1276)

Sorry there are no passes over London.